Hourly Data Report for February 22, 2002

SHERBROOKE A
QUEBEC

45°26'00.000" N
71°41'00.000" W
241.40 m
7028124
71610
YSC

Download Data

Hourly Data (February 2002)
Hourly Data Report for February 22, 2002
TIME
LST
Temp Definition
°C
Dew Point Definition
°C
Rel Hum Definition
%
Precip. Amount Definition
mm

Wind Dir Definition
10's deg

Wind Spd Definition
km/h
Visibility Definition
km
Stn Press Definition
kPa
Hmdx Definition


Wind Chill Definition


Weather Definition


00:00 -0.1 -0.1 100     0 0.5 97.75     Rain
01:00 0.4 0.4 100     0 1.4 97.73      
02:00 0.9 0.8 99   28 7 9.7 97.74      
03:00 1.1 0.5 96   26 7 15.0 97.73      
04:00 1.2 0.1 92   25 6 15.0 97.73      
05:00 0.6 0.3 98   18 4 11.3 97.73      
06:00 0.6 0.3 98   18 4 11.3 97.71     Rain
07:00 -0.6 -0.7 99     0 1.4 97.71      
08:00 0.0 0.0 100   19 4 6.4 97.71   -1 Fog
09:00 1.4 0.6 94   22 4 16.1 97.70     Mostly Cloudy
10:00 1.6 0.2 90   26 7 19.3 97.69     Cloudy
11:00 1.6 0.3 91   24 9 12.9 97.69     Snow
12:00 0.9 -0.2 92   26 13 9.7 97.70     Snow
13:00 0.5 -1.0 90   27 24 4.8 97.73     Snow, Fog
14:00 -0.2 -1.5 91   25 17 3.2 97.79   -5 Snow, Fog
15:00 -1.1 -2.2 92   25 17 9.7 97.88   -6 Snow, Fog
16:00 -1.6 -3.3 88   25 20 12.9 97.96   -7 Snow
17:00 -2.5 -4.4 87   26 19 19.3 98.05   -8 Snow Showers
18:00 -3.2 -5.3 85   27 15 15.0 98.17   -8 Snow
19:00 -3.9 -5.6 88   27 17 12.9 98.27   -10 Snow
20:00 -4.5 -5.8 91   27 20 9.7 98.35   -11 Snow
21:00 -4.9 -6.1 91   23 13 6.4 98.41   -10 Snow
22:00 -4.9 -6.4 89   24 15 12.9 98.45   -10 Snow
23:00 -4.9 -6.7 87   25 13 11.3 98.48   -10 Snow

Notes on Data Quality.

Legend

  • E = Estimated
  • M = Missing
  • NA = Not Available*
  • [empty] = Indicates an unobserved value
Date modified: